India Forums Logo

Hum ne li hai... Shapath

India Forums > Forum Index > Hum ne li hai... Shapath
Hum ne li hai... Shapath is a story of tough cops against the flawed system with thrilling and contemporary police cases weaved in.
...
<< | 6 | 7 | 8 | 9 | 10 | 11 | 12 | 13 | 14 | 15 | 16 | 17 | 18 | 19 | 20 | 21 | >>
TIDTopic SubjectStart DateLast Entry
344091116/02/2013 WU: Shaurya Invisible, Abhigyan Blamed2/16/2013 1:40:22 PM2/17/2013 1:52:29 AM
344093516th Feb -- EHQ Shapath Season 2 WO/DL2/16/2013 2:36:44 PM2/16/2013 8:48:37 PM
344189417/02/2013 WU: The Forced Orphanage2/17/2013 11:08:52 AM2/19/2013 4:44:25 AM
344211817th Feb -- EHQ Shapath Season 2 WO/DL2/17/2013 1:44:50 PM2/18/2013 10:27:03 AM
3443604Amit Pachori joins the cast of HNLHS2/18/2013 10:27:53 AM2/19/2013 8:16:20 PM
3443606Team to shoot in Pune, Ahmedabad, Allahabad2/18/2013 10:28:46 AM2/22/2013 3:04:55 AM
3445986The Nine Originals! :)2/19/2013 7:21:18 PM2/21/2013 6:55:01 PM
3447326Tanushree Dutta to feature in an episodic2/20/2013 11:22:45 AM2/21/2013 12:40:29 AM
3447568Welcome Our New Channel Moderator2/20/2013 3:25:07 PM2/22/2013 3:41:23 PM
3448297Celebrity special on Life OK's Hum Ne Li Hai...Sha2/21/2013 4:19:05 AM2/24/2013 3:59:41 AM
3449501TOI: TV Shooting at Kumbh2/21/2013 9:18:39 PM2/23/2013 8:06:50 AM
3449532||HNLHS Banner Contest 2 Results||2/21/2013 10:02:56 PM3/26/2013 5:00:14 AM
3450043TOI Om Puri in Hum Ne Li Hai.. Shapath2/22/2013 6:40:53 AM2/22/2013 10:00:21 AM
3450421Jiten Lalwani to feature in "SBAGR" episodic2/22/2013 10:03:23 AM2/22/2013 10:03:23 AM
3451822GOTW | Keep One, Drop One (Closed)2/23/2013 11:07:47 AM3/2/2013 2:41:35 PM
345196923/02/2013 WU: The Casting Couch Controversy2/23/2013 1:55:06 PM2/24/2013 10:07:35 AM
3452208Yesterday's screen space2/23/2013 10:24:56 PM3/20/2013 1:09:27 AM
3452968For All Zohaib Siddiqui AkaEx-SI Vikas Fans2/24/2013 1:25:48 PM2/24/2013 11:18:20 PM
345298924/02/2013 WU: The UP Bike Robbery Case2/24/2013 2:18:07 PM3/1/2013 10:24:16 PM
345306024th Feb -- EHQ Shapath Season 2 WO/DL2/24/2013 6:07:13 PM2/24/2013 6:54:13 PM
3454713After Om Puri, Anupam Shyam is next on HNLHS2/25/2013 3:27:10 PM2/27/2013 7:42:10 AM
3455910Saheb Biwi Aur Gangster Returns Episode Promo2/26/2013 9:32:04 AM2/26/2013 9:32:04 AM
3456026When Karishma Modi aka Kashish performed a mujra2/26/2013 10:08:11 AM2/27/2013 9:02:07 AM
3462409Shapath Police Team AT # 13/1/2013 10:10:47 PM7/31/2013 5:01:23 PM
3463574No WUs This Week - Due to My Midterm3/2/2013 2:01:42 PM3/4/2013 10:38:00 PM
3463603GOTW: Rapid Fire (Closed)3/2/2013 2:40:39 PM3/7/2013 9:53:57 PM
34636122nd March -- EHQ Shapath Season 2 WO/DL3/2/2013 2:52:33 PM3/3/2013 10:34:10 AM
34648423rd March -- EHQ Shapath Season 2 WO/DL3/3/2013 6:04:57 PM3/3/2013 6:37:55 PM
3467934Murli Sharma & Kashmera Shah in Shapath3/5/2013 7:08:37 AM3/6/2013 12:41:35 PM
3472055Shapath (Sabse Badi Talaash) PROMO3/7/2013 6:39:21 AM3/8/2013 2:18:30 AM
3473444GOTW: Name that Movie (Closed)3/7/2013 9:53:05 PM3/24/2013 3:28:31 PM
3475278Twitter/FB Updates3/8/2013 8:34:54 PM2/8/2014 4:45:24 AM
34765999/3/2013 WU: Sabse Badi Talash Ep 13/9/2013 2:05:24 PM3/9/2013 2:05:24 PM
3476968Piyush Sahdev joins Twitter3/10/2013 12:22:04 AM3/11/2013 12:19:50 PM
3477354~12th March-Its Charming Piyush Sahdev's Birthday!3/10/2013 7:37:10 AM3/14/2013 12:24:40 AM
347783510/03/2013 WU: Sabse Badi Talash Ep 23/10/2013 3:51:36 PM3/11/2013 12:12:06 PM
34779519March -- EHQ Shapath Season 2 WO/DL3/10/2013 9:49:03 PM3/10/2013 10:26:35 PM
3478356|FF: Ghost defeats, Abhigyan wins-dedicated To PS|3/11/2013 4:16:49 AM8/26/2013 3:17:33 PM
3480752Happy Birthday to Piyush Sahdev and Karanuday Jenj3/12/2013 8:50:17 AM3/13/2013 1:48:00 AM
3482187Birthday Over, Time for Prize!!3/13/2013 4:44:34 AM3/28/2013 5:35:50 AM
34884629-10 March -- EHQ Shapath Season 2 WO/DL3/16/2013 6:21:14 PM3/16/2013 8:00:22 PM
348853116/03/2013 WU: Sabse Badi Talash Epi 33/16/2013 8:44:34 PM3/20/2013 8:34:29 PM
348953217/03/2013 WU: None for Today3/17/2013 1:15:40 PM3/17/2013 1:15:40 PM
348954816th March -- EHQ Shapath Season 2 WO/DL3/17/2013 1:45:27 PM3/17/2013 2:09:29 PM
3493353Hasan Zaidi in an Old Comedy TV Show3/19/2013 8:33:51 PM3/20/2013 6:05:52 PM
3495064TOI: I want to do a mujra on TV: Karishma Modi3/20/2013 7:10:05 PM3/21/2013 9:39:47 PM
350005617th-23rd March -- EHQ Shapath Season 2 WO/DL3/23/2013 6:08:47 PM3/23/2013 6:30:04 PM
350009523/03/2013 WU: Sabse Badi Talash Ep 53/23/2013 7:25:11 PM3/24/2013 10:37:01 AM
350112624/03/2013 WU: Sabse Badi Talash Ep 63/24/2013 11:37:45 AM3/24/2013 12:42:54 PM
3501165Favourite sabse badi talaash episode3/24/2013 12:09:07 PM3/24/2013 10:03:45 PM
350129624th March -- EHQ Shapath Season 2 WO/DL3/24/2013 2:53:06 PM3/24/2013 3:53:07 PM
3501315GOTW: Keep, Pass, Slap (Closed)3/24/2013 3:27:55 PM3/30/2013 8:44:06 PM
3503476'Cricket and Crime' - HNLHS's theme for April3/25/2013 6:24:05 PM3/26/2013 4:58:59 AM
3510450Inspector Shaurya to die in Hum Ne Li Hai Shapath3/29/2013 12:49:52 PM4/7/2013 3:43:56 PM
3510619TOI: Madhura Naik bags a film!3/29/2013 4:19:13 PM3/30/2013 4:57:55 AM
351200430th March -- EHQ Shapath Season 2 WO/DL3/30/2013 4:54:43 PM3/30/2013 5:14:47 PM
351203330/03/2013 WU: Sabse Badi Talash Ep 73/30/2013 6:34:56 PM3/31/2013 1:42:21 PM
3512104GOTW: Food Antakshari (Closed)3/30/2013 8:43:21 PM4/10/2013 3:51:23 PM
3512515Narendra Jha is excited about his upcoming films3/31/2013 4:34:29 AM3/31/2013 9:09:15 AM
3512801Shapath Actors Slowly Being Replaced3/31/2013 8:56:57 AM3/31/2013 8:56:57 AM
351316231/03/2013 WU: Sabse Badi Talash Ep 83/31/2013 2:35:47 PM4/1/2013 10:05:42 PM
351328031st March -- EHQ Shapath Season 2 WO/DL3/31/2013 6:55:19 PM3/31/2013 8:05:06 PM
3515088Piyush Sahdev in Old TV Show4/1/2013 3:54:28 PM4/2/2013 8:53:20 AM
3515825shapath old!!4/2/2013 4:45:18 AM4/3/2013 4:44:40 AM
3515950New Cop joins the Shapath Team- Mala Salariya4/2/2013 6:36:20 AM4/3/2013 2:43:14 PM
3516207TOI: Mala Salariya to play a new cop in Shapath4/2/2013 9:03:22 AM4/2/2013 9:03:22 AM
3518242TOI: Celebrity galore on Shapath!4/3/2013 10:18:22 AM4/4/2013 4:31:13 AM
3519687who has the best votes4/4/2013 6:50:03 AM4/4/2013 11:33:07 AM
3520984TB:Cricketer Madan Lal in 'Hum Ne Li Hai..Shapath'3/31/2013 8:12:44 PM4/5/2013 11:27:36 AM
3521274Aman Verma to join Hum Ne Li Hai... Shapath as the4/5/2013 4:59:43 AM4/5/2013 10:49:17 PM
3521291Sarwar Ahuja, Milind Gunaji out of Shapath, Karan4/5/2013 5:12:58 AM4/5/2013 11:25:34 AM
35236896th April -- EHQ Shapath Season 2 WO/DL4/6/2013 5:20:35 PM4/6/2013 9:58:13 PM
35247357th April -- EHQ Shapath Season 2 WO/DL4/7/2013 1:58:58 PM4/7/2013 2:27:21 PM
3524751TOI: TV actors paid according to popularity: Aamir4/7/2013 2:37:44 PM4/10/2013 10:46:50 AM
3525123TB:Mala Salariya's cash stolen from sets!4/8/2013 1:08:31 AM4/8/2013 12:33:16 PM
<< | 6 | 7 | 8 | 9 | 10 | 11 | 12 | 13 | 14 | 15 | 16 | 17 | 18 | 19 | 20 | 21 | >>